Time,TemperatureF,DewpointF,PressureIn,WindDirection,WindDirectionDegrees,WindSpeedMPH,WindSpeedGustMPH,Humidity,HourlyPrecipIn,Conditions,Clouds,dailyrainin,SoftwareType,DateUTC
2013-05-21 07:45:00,62.3,62.0,29.97,ESE,102,0.0,-999.0,98,-99.99,,,0.00,weatherlink.com 1.10,2013-05-21 11:45:00,
2013-05-21 07:58:00,63.3,63.0,29.96,ESE,102,0.0,-999.0,98,-99.99,,,0.00,weatherlink.com 1.10,2013-05-21 11:58:00,
2013-05-21 08:13:00,65.1,65.0,29.96,ESE,102,0.0,-999.0,98,-99.99,,,0.00,weatherlink.com 1.10,2013-05-21 12:13:00,
2013-05-21 08:28:00,66.7,66.0,29.95,ESE,102,0.0,-999.0,98,-99.99,,,0.00,weatherlink.com 1.10,2013-05-21 12:28:00,
2013-05-21 08:44:00,68.2,68.0,29.95,ESE,102,0.0,-999.0,98,-99.99,,,0.00,weatherlink.com 1.10,2013-05-21 12:44:00,
2013-05-21 08:59:00,69.9,69.0,29.96,ESE,102,0.0,-999.0,96,-99.99,,,0.00,weatherlink.com 1.10,2013-05-21 12:59:00,
2013-05-21 09:14:00,72.1,70.0,29.95,ESE,102,0.0,-999.0,92,-99.99,,,0.00,weatherlink.com 1.10,2013-05-21 13:14:00,
2013-05-21 09:29:00,74.4,70.0,29.95,ESE,102,0.0,-999.0,87,-99.99,,,0.00,weatherlink.com 1.10,2013-05-21 13:29:00,
2013-05-21 09:44:00,76.4,71.0,29.95,ESE,102,0.0,-999.0,83,-99.99,,,0.00,weatherlink.com 1.10,2013-05-21 13:44:00,
2013-05-21 09:59:00,77.9,71.0,29.94,North,355,0.0,-999.0,80,-99.99,,,0.00,weatherlink.com 1.10,2013-05-21 13:59:00,
2013-05-21 10:14:00,79.4,72.0,29.93,NNE,15,0.0,-999.0,77,-99.99,,,0.00,weatherlink.com 1.10,2013-05-21 14:14:00,
2013-05-21 10:29:00,80.3,71.0,29.93,NNE,15,0.0,-999.0,74,-99.99,,,0.00,weatherlink.com 1.10,2013-05-21 14:29:00,
2013-05-21 10:45:00,82.1,72.0,29.93,NNE,15,0.0,-999.0,72,-99.99,,,0.00,weatherlink.com 1.10,2013-05-21 14:45:00,
2013-05-21 11:00:00,83.3,72.0,29.93,NNE,15,0.0,-999.0,68,-99.99,,,0.00,weatherlink.com 1.10,2013-05-21 15:00:00,
2013-05-21 11:15:00,83.5,72.0,29.93,NNE,23,0.0,-999.0,68,-99.99,,,0.00,weatherlink.com 1.10,2013-05-21 15:15:00,
2013-05-21 11:30:00,83.8,73.0,29.91,NNE,23,0.0,-999.0,69,-99.99,,,0.00,weatherlink.com 1.10,2013-05-21 15:30:00,
2013-05-21 11:45:00,85.8,73.0,29.91,NNE,26,0.0,-999.0,65,-99.99,,,0.00,weatherlink.com 1.10,2013-05-21 15:45:00,
2013-05-21 12:00:00,84.2,73.0,29.91,NNE,26,0.0,-999.0,68,-99.99,,,0.00,weatherlink.com 1.10,2013-05-21 16:00:00,
2013-05-21 12:15:00,84.5,72.0,29.90,ENE,61,0.0,-999.0,67,-99.99,,,0.00,weatherlink.com 1.10,2013-05-21 16:15:00,
2013-05-21 12:30:00,85.9,72.0,29.90,SE,132,0.0,-999.0,64,-99.99,,,0.00,weatherlink.com 1.10,2013-05-21 16:30:00,
2013-05-21 12:45:00,85.9,72.0,29.89,SSE,153,0.0,-999.0,64,-99.99,,,0.00,weatherlink.com 1.10,2013-05-21 16:45:00,
2013-05-21 13:01:00,86.6,72.0,29.89,ESE,107,0.0,-999.0,63,-99.99,,,0.00,weatherlink.com 1.10,2013-05-21 17:01:00,
2013-05-21 13:16:00,87.1,72.0,29.89,SE,140,0.0,-999.0,61,-99.99,,,0.00,weatherlink.com 1.10,2013-05-21 17:16:00,
2013-05-21 13:31:00,88.1,73.0,29.88,SSE,147,0.0,-999.0,61,-99.99,,,0.00,weatherlink.com 1.10,2013-05-21 17:31:00,
2013-05-21 13:46:00,88.6,72.0,29.87,SE,146,0.0,-999.0,59,-99.99,,,0.00,weatherlink.com 1.10,2013-05-21 17:46:00,
2013-05-21 14:01:00,89.5,72.0,29.87,SE,146,0.0,-999.0,57,-99.99,,,0.00,weatherlink.com 1.10,2013-05-21 18:01:00,
2013-05-21 14:16:00,89.6,72.0,29.87,SSW,207,0.0,-999.0,56,-99.99,,,0.00,weatherlink.com 1.10,2013-05-21 18:16:00,
2013-05-21 14:31:00,90.1,72.0,29.87,SSW,207,0.0,-999.0,56,-99.99,,,0.00,weatherlink.com 1.10,2013-05-21 18:31:00,
2013-05-21 14:46:00,90.3,73.0,29.86,SSW,208,0.0,-999.0,57,-99.99,,,0.00,weatherlink.com 1.10,2013-05-21 18:46:00,
2013-05-21 15:01:00,89.7,71.0,29.86,South,186,0.0,-999.0,54,-99.99,,,0.00,weatherlink.com 1.10,2013-05-21 19:01:00,
2013-05-21 15:17:00,89.3,71.0,29.85,West,264,0.0,-999.0,55,-99.99,,,0.00,weatherlink.com 1.10,2013-05-21 19:17:00,
2013-05-21 15:32:00,89.3,72.0,29.85,West,263,0.0,-999.0,56,-99.99,,,0.00,weatherlink.com 1.10,2013-05-21 19:32:00,
2013-05-21 15:47:00,88.8,71.0,29.84,West,263,0.0,-999.0,56,-99.99,,,0.00,weatherlink.com 1.10,2013-05-21 19:47:00,
2013-05-21 16:02:00,88.2,71.0,29.83,WSW,253,0.0,-999.0,57,-99.99,,,0.00,weatherlink.com 1.10,2013-05-21 20:02:00,
2013-05-21 16:17:00,87.9,72.0,29.83,South,184,0.0,-999.0,59,-99.99,,,0.00,weatherlink.com 1.10,2013-05-21 20:17:00,
2013-05-21 16:32:00,86.6,72.0,29.83,South,173,0.0,-999.0,62,-99.99,,,0.00,weatherlink.com 1.10,2013-05-21 20:32:00,
2013-05-21 16:47:00,84.7,72.0,29.83,South,170,0.0,-999.0,66,-99.99,,,0.00,weatherlink.com 1.10,2013-05-21 20:47:00,
2013-05-21 17:02:00,83.9,72.0,29.82,South,170,0.0,-999.0,68,-99.99,,,0.00,weatherlink.com 1.10,2013-05-21 21:02:00,
2013-05-21 17:17:00,84.0,72.0,29.82,South,174,0.0,-999.0,68,-99.99,,,0.00,weatherlink.com 1.10,2013-05-21 21:17:00,
2013-05-21 17:32:00,83.6,72.0,29.82,South,174,0.0,-999.0,68,-99.99,,,0.00,weatherlink.com 1.10,2013-05-21 21:32:00,
2013-05-21 17:47:00,83.1,72.0,29.82,South,174,0.0,-999.0,69,-99.99,,,0.00,weatherlink.com 1.10,2013-05-21 21:47:00,
2013-05-21 18:02:00,82.3,72.0,29.83,South,174,0.0,-999.0,70,-99.99,,,0.00,weatherlink.com 1.10,2013-05-21 22:02:00,
2013-05-21 18:17:00,81.6,71.0,29.83,South,171,0.0,-999.0,70,-99.99,,,0.00,weatherlink.com 1.10,2013-05-21 22:17:00,
2013-05-21 18:33:00,81.2,71.0,29.83,South,171,0.0,-999.0,71,-99.99,,,0.00,weatherlink.com 1.10,2013-05-21 22:33:00,
2013-05-21 18:48:00,80.6,71.0,29.83,South,171,0.0,-999.0,72,-99.99,,,0.00,weatherlink.com 1.10,2013-05-21 22:48:00,
2013-05-21 19:03:00,80.0,71.0,29.83,South,171,0.0,-999.0,73,-99.99,,,0.00,weatherlink.com 1.10,2013-05-21 23:03:00,
2013-05-21 19:18:00,79.5,71.0,29.83,South,171,0.0,-999.0,74,-99.99,,,0.00,weatherlink.com 1.10,2013-05-21 23:18:00,
2013-05-21 19:33:00,78.9,70.0,29.84,South,171,0.0,-999.0,74,-99.99,,,0.00,weatherlink.com 1.10,2013-05-21 23:33:00,
2013-05-21 20:03:00,77.7,70.0,29.84,South,171,0.0,-999.0,76,-99.99,,,0.00,weatherlink.com 1.10,2013-05-22 00:03:00,
2013-05-21 20:18:00,77.2,70.0,29.84,South,171,0.0,-999.0,77,-99.99,,,0.00,weatherlink.com 1.10,2013-05-22 00:18:00,
2013-05-21 20:33:00,76.2,70.0,29.84,South,171,0.0,-999.0,80,-99.99,,,0.00,weatherlink.com 1.10,2013-05-22 00:33:00,
2013-05-21 20:48:00,75.2,69.0,29.84,South,171,0.0,-999.0,81,-99.99,,,0.00,weatherlink.com 1.10,2013-05-22 00:48:00,
2013-05-21 21:03:00,74.7,69.0,29.85,South,171,0.0,-999.0,82,-99.99,,,0.00,weatherlink.com 1.10,2013-05-22 01:03:00,
2013-05-21 21:18:00,74.1,68.0,29.84,South,171,0.0,-999.0,82,-99.99,,,0.00,weatherlink.com 1.10,2013-05-22 01:18:00,
2013-05-21 21:33:00,73.5,68.0,29.84,South,171,0.0,-999.0,84,-99.99,,,0.00,weatherlink.com 1.10,2013-05-22 01:33:00,
2013-05-21 21:49:00,72.8,68.0,29.84,South,171,0.0,-999.0,84,-99.99,,,0.00,weatherlink.com 1.10,2013-05-22 01:49:00,
2013-05-21 22:04:00,72.6,68.0,29.84,South,171,0.0,-999.0,85,-99.99,,,0.00,weatherlink.com 1.10,2013-05-22 02:04:00,
2013-05-21 22:19:00,72.1,67.0,29.84,South,171,0.0,-999.0,85,-99.99,,,0.00,weatherlink.com 1.10,2013-05-22 02:19:00,
2013-05-21 22:34:00,71.7,67.0,29.84,South,171,0.0,-999.0,86,-99.99,,,0.00,weatherlink.com 1.10,2013-05-22 02:34:00,
2013-05-21 22:49:00,71.3,67.0,29.84,South,171,0.0,-999.0,87,-99.99,,,0.00,weatherlink.com 1.10,2013-05-22 02:49:00,